CAPE
17 22 28 20 17 3 0 1 0 15 14 4 0 0 5 7 4 0 0 0 0 1 2 0 0 0 0 0 0 0 0 0 0 0 0 0 0 0 0 0 0 0 0 0 0 0 0
11 13 18 10 26 27 13 1 1 1 13 15 1 4 3 30 6 1 2 0 0 0 0 4 2 1 0 0 0 0 0 0 0 0 0 0 0 0 0 0 0 0 0 0 0 0 0
12 9 9 14 17 27 26 27 0 2 0 9 20 3 0 5 14 6 0 0 0 0 0 1 3 1 1 0 0 0 0 0 0 0 0 0 0 0 0 0 0 0 0 0 0 0 0
10 12 11 4 1 14 10 16 21 0 1 5 27 33 23 0 1 2 4 3 0 0 0 1 3 3 0 0 0 0 0 0 0 0 0 0 0 0 0 0 0 0 0 0 0 0 0
12 13 15 17 10 4 14 17 39 33 8 14 3 5 20 15 0 4 11 1 0 0 0 4 2 3 0 0 0 0 0 0 0 0 0 0 0 0 0 0 0 0 0 0 0 0 0
7 13 15 13 12 6 7 18 24 45 41 20 12 17 11 1 7 0 7 11 0 2 0 12 1 2 0 0 0 0 0 0 0 0 0 0 0 0 0 0 0 0 0 0 0 0 0
6 16 7 19 14 12 12 8 20 1 3 18 22 24 4 0 0 7 4 0 0 21 6 0 13 10 0 0 0 0 0 0 0 0 0 0 0 0 0 0 0 0 0 0 0 0 0
9 9 10 15 22 24 25 13 13 5 3 11 20 9 15 6 0 0 5 1 1 0 0 0 2 12 3 0 0 0 0 0 0 0 0 0 0 0 0 0 0 0 0 0 0 0 0
14 21 9 17 26 33 36 26 10 15 4 18 16 26 13 18 9 0 0 0 0 0 0 0 0 0 31 0 0 0 0 0 0 0 0 0 0 0 0 0 0 0 0 0 0 0 0
26 7 19 13 15 20 17 13 15 12 5 20 15 20 3 11 13 0 0 0 14 3 0 0 0 0 0 23 14 0 0 0 0 0 0 0 0 0 0 0 0 0 0 0 0 0 0
17 23 21 6 9 13 10 7 7 6 16 8 5 10 10 13 0 3 0 0 14 17 0 0 0 0 0 0 0 1 0 5 0 0 0 0 0 0 0 0 0 0 0 0 0 0 0
16 15 19 18 16 16 14 9 7 9 7 3 2 1 12 0 9 0 10 5 30 12 0 0 0 2 6 0 0 6 2 0 0 1 0 0 0 0 0 0 0 0 0 0 0 0 0
9 13 14 15 7 8 9 9 9 9 10 6 11 12 20 16 9 2 0 28 6 0 0 0 0 8 6 10 14 13 4 1 0 1 1 1 0 0 0 0 0 0 7 1 0 1 0
11 9 11 10 7 6 5 6 8 10 10 6 6 12 1 19 10 9 5 4 0 0 0 0 0 4 13 20 32 38 43 43 0 1 0 0 1 1 0 0 0 0 0 0 0 0 0
19 21 20 14 11 12 6 6 8 7 9 4 6 0 8 5 3 17 1 0 0 0 0 0 0 0 4 27 15 34 34 34 9 0 3 6 0 0 0 0 0 0 2 0 0 0 0
33 26 25 20 20 13 15 12 4 7 14 11 10 8 13 3 16 33 0 0 0 0 0 0 0 0 0 0 13 30 31 4 19 18 10 16 8 0 0 0 0 0 0 0 0 0 0
31 37 30 19 8 12 19 17 24 7 14 22 11 8 4 1 8 11 0 0 0 0 0 0 0 0 0 0 7 16 56 0 0 2 16 16 29 1 34 12 0 0 0 0 0 0 0
17 29 38 33 16 7 20 7 19 21 29 4 26 1 16 4 2 2 0 0 0 0 0 0 0 0 0 0 0 0 2 2 1 0 37 10 41 34 19 3 3 0 0 0 0 0 0
21 19 21 30 38 17 16 7 8 23 37 16 6 3 22 46 0 0 1 0 0 0 0 0 0 0 0 0 0 0 0 0 0 0 0 12 19 0 2 17 8 0 0 0 0 0 0
18 15 9 14 2 33 23 6 5 19 30 22 0 3 2 21 1 0 0 2 2 2 0 0 0 0 0 0 0 0 0 0 0 6 1 2 1 13 0 0 0 0 0 0 0 0 0
15 17 2 16 4 20 8 7 7 19 28 21 0 9 2 0 0 0 0 0 0 0 0 0 0 0 0 0 0 0 0 0 0 0 0 0 1 2 0 0 0 1 0 0 0 0 0
8 7 8 25 0 10 18 12 12 17 28 17 10 5 3 0 0 0 1 2 1 0 0 0 0 0 0 0 0 0 0 0 0 0 0 5 0 1 0 0 2 28 36 5 0 0 0
2 1 28 35 21 25 15 9 16 14 26 14 13 7 2 2 0 1 0 0 0 2 0 0 0 0 0 0 0 0 0 0 0 0 0 0 6 8 0 0 0 0 0 0 7 0 0
19 8 35 41 31 5 17 17 9 5 14 17 5 25 7 0 1 1 2 2 1 0 0 0 0 0 0 0 0 0 0 0 0 0 0 0 0 4 0 0 0 0 0 0 16 5 0
25 32 47 36 11 5 26 16 13 2 14 18 4 33 13 2 1 2 1 0 0 0 0 1 0 0 0 0 0 0 0 0 0 0 0 0 0 0 0 0 0 0 0 0 0 0 0
26 41 38 40 34 31 21 12 14 2 12 16 7 6 12 2 0 0 0 0 0 0 0 0 0 0 0 0 0 0 0 0 0 0 0 0 0 0 0 0 0 0 0 0 0 0 0
11 31 42 37 41 37 19 17 12 4 15 17 14 14 25 4 0 1 0 3 1 1 0 0 0 0 0 0 0 0 0 0 0 0 0 0 0 0 0 0 0 0 0 0 1 0 0
10 23 15 25 40 37 26 12 14 10 14 8 0 11 8 3 2 2 3 1 0 0 0 0 0 0 0 0 0 0 0 0 0 0 0 0 0 0 0 0 0 0 0 3 0 0 0
9 12 8 6 25 28 10 5 8 10 8 26 2 1 6 0 0 0 0 1 2 1 0 0 0 0 0 0 0 0 0 0 0 0 0 0 0 0 0 1 0 3 1 0 9 0 0
CIN
-0 -0 0 -0 -12 -0 0 -0 -0 -3 -3 -6 0 -4 -7 -6 -0 0 0 0 0 0 0 0 0 0 0 0 0 0 0 0 0 0 0 0 0 0 0 0 0 0 0 0 0 0 0
-0 -0 -0 0 -32 -17 -1 -0 -0 -0 -7 -3 -14 -15 -19 -3 -5 -2 -0 0 0 0 0 0 -0 0 0 0 0 0 0 0 0 0 0 0 0 0 0 0 0 0 0 0 0 0 0
-0 -0 -0 0 -3 -37 -14 -1 0 0 0 -2 -2 -14 -1 -11 -5 -3 0 0 0 0 0 0 0 0 0 0 0 0 0 0 0 0 0 0 0 0 0 0 0 0 0 0 0 0 0
-0 -0 -0 -0 -0 -12 -7 -13 -7 0 0 -1 -0 -2 -7 0 -14 -9 -5 -7 0 0 0 0 0 0 0 0 0 0 0 0 0 0 0 0 0 0 0 0 0 0 0 0 0 0 0
-0 -0 -0 -0 -0 -0 -0 -1 -2 -1 -2 -2 -1 -3 -9 -10 0 -11 -3 -11 0 0 0 -0 0 0 0 0 0 0 0 0 0 0 0 0 0 0 0 0 0 0 0 0 0 0 0
-1 -1 -1 -0 -0 -0 -0 -0 -1 -1 -1 -3 -2 -4 -5 -4 -11 -5 -10 -3 0 -26 0 0 0 -0 0 0 0 0 0 0 0 0 0 0 0 0 0 0 0 0 0 0 0 0 0
-1 -1 -1 -0 -0 -0 -0 0 -1 -2 -1 -1 -4 -0 -3 0 -0 -15 -8 0 0 -1 -3 0 -1 -4 0 0 0 0 0 0 0 0 0 0 0 0 0 0 0 0 0 0 0 0 0
-1 -1 -0 -0 -0 -0 -0 0 0 -0 -0 -0 -0 -9 -5 -3 0 0 -3 -0 -4 0 0 0 -8 -17 -19 0 0 0 0 0 0 0 0 0 0 0 0 0 0 0 0 0 0 0 0
-1 -1 -1 -1 -0 -1 -0 -0 -0 0 -0 0 0 0 -5 -4 -3 0 0 -6 -3 0 0 0 0 0 -16 -4 0 0 0 0 0 0 0 0 0 0 0 0 0 0 0 0 0 0 0
-0 -0 -1 -1 -2 -0 -0 -0 0 -0 -0 0 0 -0 -6 -3 -1 0 0 0 -12 -5 0 0 0 0 0 -7 -1 0 0 0 0 0 0 0 0 0 0 0 0 0 0 0 0 0 0
-0 -0 -0 -0 -1 -0 -0 -0 -0 -0 -0 -0 -3 -1 -6 -1 0 0 0 0 -33 -11 0 0 0 0 0 0 0 -3 0 -5 0 0 0 0 0 0 0 0 0 0 0 0 0 0 0
-0 -0 -0 -0 -0 -0 -0 -0 -0 -0 -0 0 -0 -1 -0 0 -0 0 -7 -38 -13 -2 -0 0 0 -1 -0 0 0 -11 -17 0 0 -1 -0 0 0 0 0 0 0 0 0 0 0 0 0
-0 -0 -0 -0 -0 -0 -0 -0 0 -0 -0 -0 -0 -0 0 -1 -1 -6 0 -4 -0 0 0 0 0 -0 -0 -0 0 -1 -13 0 0 -0 0 -0 0 0 0 0 0 0 -3 -3 0 -0 0
-0 0 -0 -0 -0 0 -0 -0 -0 0 0 0 -0 -1 -0 -1 -11 -1 -0 -2 0 0 0 0 0 -0 -1 -0 -0 0 0 -0 0 0 0 -1 -1 -0 0 0 0 0 0 -0 0 0 0
-0 -0 0 -0 0 -0 -0 -0 -0 -0 0 -0 -0 -0 -3 -40 -20 -1 0 0 0 0 0 0 0 0 -5 -0 -2 -0 0 -0 -1 0 -4 -6 -1 0 0 0 0 0 -1 0 0 0 0
-0 -0 -0 -0 -0 0 0 0 0 -0 0 -0 -0 0 0 -25 -7 -0 0 0 0 0 0 0 0 0 0 -1 -1 -0 -0 -8 -2 -18 -10 -4 -10 0 0 0 0 0 0 -0 0 0 0
-0 0 -0 -0 -1 0 -0 -0 0 0 -0 0 -0 -1 -6 -45 -2 -0 0 0 0 0 0 0 0 0 0 0 -11 -3 -0 0 0 -1 -21 -13 -4 -7 -21 -14 0 0 0 0 0 0 0
0 -0 0 0 0 -4 -0 -0 -0 -0 -0 -2 0 -0 -11 -14 -0 -1 0 0 0 0 0 0 0 0 0 0 0 0 -0 0 -1 -0 -1 -12 -0 -1 -8 -44 -66 0 0 0 0 0 0
-1 0 -0 -0 0 -0 0 -0 0 -0 -0 -0 -4 -13 -12 -1 0 -1 -1 0 -0 -1 0 0 0 0 0 0 0 0 0 0 0 0 0 -2 -2 0 -0 -36 -22 -0 0 0 0 0 0
-1 -0 -0 -0 0 -0 -0 -0 -0 0 0 -1 0 -3 -0 -3 0 0 0 -1 -2 -2 0 0 0 0 0 0 0 0 0 0 -6 -8 -1 0 0 -6 0 0 0 0 0 0 0 0 0
-0 -1 -0 -0 -1 0 -0 -0 -0 -0 -0 -0 -2 -2 -5 0 -1 -6 0 0 0 0 -2 0 0 0 0 0 0 0 0 0 0 0 0 0 0 -1 0 0 0 -2 0 0 0 0 0
0 -0 -0 -0 0 -0 0 -0 -0 0 -0 -0 0 -1 -6 0 0 0 -0 -0 0 -0 0 0 0 0 0 0 0 0 0 0 0 0 0 -30 -1 -0 0 0 0 -2 -6 -22 -56 0 0
-0 -0 -0 -0 -0 -0 -0 -0 0 0 -0 0 -0 -2 -3 -3 -0 -0 0 0 0 -0 0 0 0 0 0 0 0 0 0 0 0 0 0 -3 -16 -3 0 0 0 0 0 -14 -49 -0 0
-0 -2 -0 -0 0 -1 -1 -0 0 0 -0 -1 -1 0 -0 -0 -1 0 -1 -1 -2 0 0 0 0 0 0 0 0 0 0 0 0 0 0 0 0 -4 0 -1 0 0 0 0 -1 -10 0
-0 -0 -0 -0 -1 -0 -0 -0 0 0 -0 -1 -0 0 -0 -4 -3 -2 -1 -0 0 0 -0 -1 0 0 0 0 0 0 0 0 0 0 0 0 0 0 -0 0 0 0 0 0 0 0 0
-0 -0 -0 -0 0 0 -0 -0 -0 -0 -0 -1 -2 -4 -1 -3 0 -0 0 -0 -0 0 0 0 0 0 0 0 0 0 0 0 0 0 0 0 0 -0 0 0 0 0 0 0 0 0 0
-0 0 -0 -0 -0 -0 -0 -0 -0 -0 -1 -1 -0 -2 0 -1 -0 -0 0 0 -0 -0 0 0 0 0 0 0 0 0 0 0 0 0 0 0 0 -0 0 -0 0 0 0 0 -6 0 0
-0 -0 -0 -0 -0 -1 -0 -0 -0 -0 -0 -0 0 -0 0 -0 -1 -0 0 0 0 0 0 0 0 0 0 0 0 0 0 0 0 0 0 0 0 0 0 -0 0 0 0 -6 0 0 0
-1 -0 -1 -1 -0 -0 -0 -0 -0 -0 -0 -0 0 0 -1 0 0 0 0 0 -0 0 0 0 0 0 0 0 0 0 0 0 0 0 0 0 0 0 0 -10 0 -40 -2 0 -168 0 0
Wind_Speed
39 42 42 43 41 41 40 41 42 43 43 42 40 40 41 39 38 37 36 36 36 37 36 35 32 28 28 34 35 21 25 25 22 17 21 21 22 22 26 25 25 31 25 24 21 23 23
38 40 42 43 38 38 40 40 40 41 43 44 43 41 40 39 38 38 37 37 36 36 37 36 33 26 33 50 32 32 31 28 24 22 23 22 22 23 27 28 29 27 27 29 28 25 23
36 37 39 40 39 39 39 39 39 39 40 41 42 42 41 40 40 38 37 37 38 38 37 37 35 30 39 52 28 24 28 30 26 24 25 23 23 25 24 30 28 30 36 35 31 26 26
34 37 37 36 36 39 38 37 38 38 39 39 40 42 41 41 40 39 38 39 38 38 37 37 37 34 49 34 35 45 35 30 31 30 27 27 26 27 28 28 30 31 32 36 24 17 23
33 35 37 36 36 34 37 37 35 36 37 38 38 40 40 40 40 39 38 39 40 39 37 38 34 33 47 31 40 38 31 39 28 26 28 26 25 29 28 32 39 34 39 35 32 19 22
32 33 37 36 36 35 35 36 35 34 35 36 36 37 38 38 38 39 39 39 42 40 38 36 37 31 40 40 35 37 34 33 33 31 30 27 30 35 35 33 43 37 39 38 38 26 27
32 32 34 37 37 35 35 35 35 34 34 32 34 35 35 36 35 36 35 36 39 39 40 42 37 38 30 28 26 33 27 31 32 34 40 31 37 45 39 37 37 41 44 45 38 31 35
32 32 32 35 37 36 35 35 34 35 34 34 33 31 34 33 33 33 31 37 38 32 47 45 49 47 44 30 30 29 18 30 35 45 35 37 47 42 37 38 37 39 46 55 45 40 39
33 32 30 32 35 36 36 35 35 33 34 32 33 32 30 31 29 29 33 34 26 30 47 46 43 49 44 40 39 34 24 25 33 40 41 45 45 38 38 39 41 43 46 50 50 43 46
31 31 30 29 34 36 36 36 35 34 35 33 33 32 31 28 27 26 31 29 27 26 47 54 46 45 47 40 47 41 31 28 31 35 37 44 50 39 41 44 39 52 39 44 45 41 51
30 29 29 28 30 35 36 36 36 35 34 34 35 33 31 25 24 25 26 22 20 24 59 40 42 35 37 45 40 43 36 39 40 36 26 40 36 43 51 44 34 49 36 37 40 44 50
28 28 28 27 28 33 36 36 36 36 35 35 35 34 31 25 22 23 20 14 17 40 59 41 35 38 40 47 48 36 39 40 42 46 43 52 36 35 42 40 36 33 35 32 35 41 53
26 28 27 26 25 30 35 37 37 37 36 37 36 35 30 21 23 11 15 16 34 50 35 44 41 39 43 47 50 47 45 46 45 44 50 50 50 40 38 37 33 33 31 41 46 46 51
24 26 26 25 24 27 33 37 38 38 37 37 38 36 30 17 15 4 16 26 45 39 43 30 34 42 47 45 48 49 47 53 53 50 50 54 56 48 41 44 39 36 34 35 42 45 55
23 24 25 24 23 26 32 36 38 38 38 38 39 32 27 21 12 9 20 38 43 42 37 41 38 41 45 48 45 49 55 54 53 53 56 51 57 40 40 40 37 39 44 36 42 38 47
22 23 24 24 22 23 29 35 38 38 38 38 35 34 31 18 8 12 24 41 42 37 33 33 44 38 45 46 49 47 51 50 56 49 51 51 55 46 40 37 41 42 31 38 38 43 50
25 23 23 22 21 19 24 34 38 38 38 38 34 33 26 10 9 19 27 35 37 33 32 36 44 43 44 52 42 52 44 49 48 50 48 56 55 52 39 49 49 44 42 36 35 38 41
24 24 23 21 19 18 19 32 38 37 37 34 29 33 22 9 19 24 27 29 35 31 27 36 38 41 47 47 50 49 44 38 29 34 52 50 50 66 55 43 40 42 44 41 45 46 51
22 23 24 24 19 16 17 26 38 37 35 33 30 33 22 18 31 25 36 50 43 41 30 30 34 36 41 49 49 49 52 47 49 40 40 47 48 60 61 55 39 52 51 47 49 41 52
21 22 22 24 21 17 16 20 38 37 35 30 28 31 26 27 32 38 37 48 51 39 49 38 36 38 42 50 42 48 50 46 36 43 39 34 44 58 69 65 55 51 52 50 52 53 59
22 22 20 22 21 18 17 16 33 36 35 29 21 25 29 33 39 40 35 37 48 46 29 26 43 32 37 47 45 51 49 50 52 49 40 39 50 46 64 73 66 61 61 56 58 59 58
22 21 20 22 22 18 16 15 17 36 35 25 19 23 28 36 38 37 40 42 55 47 36 35 39 34 33 53 44 50 45 47 50 39 41 39 53 52 53 47 62 65 60 55 56 60 62
23 20 22 22 21 20 17 16 20 32 32 22 24 21 29 37 40 42 46 48 58 44 41 36 34 43 39 33 31 49 43 48 52 48 46 44 49 53 65 52 47 58 62 58 54 56 58
22 20 23 23 22 21 17 17 18 22 24 26 30 32 37 47 47 51 45 46 51 42 39 38 41 40 37 37 37 43 47 50 54 53 44 48 49 49 62 47 63 41 40 45 56 59 54
21 22 22 22 21 18 17 17 18 21 26 28 37 33 40 47 46 47 45 50 51 49 46 49 38 34 39 36 40 41 42 46 54 55 53 49 49 54 62 65 59 57 47 45 52 65 57
24 26 22 22 21 19 18 18 18 20 30 38 40 35 36 46 49 42 46 44 55 52 49 31 30 38 34 29 28 40 44 42 44 45 46 50 53 57 59 70 72 64 42 37 42 64 59
24 24 24 23 22 20 18 19 19 19 40 38 41 36 37 43 39 32 39 46 42 42 36 27 22 27 26 29 33 36 40 34 43 46 44 42 45 57 64 67 62 70 58 53 54 54 53
20 24 26 25 24 21 21 22 20 16 40 43 43 38 25 39 43 35 37 39 36 31 28 20 13 19 26 32 31 29 34 35 40 40 42 42 41 47 53 61 74 53 49 52 42 47 44
20 23 25 23 24 23 23 22 18 31 38 41 42 15 12 28 32 32 37 35 31 28 19 13 20 18 18 22 25 27 31 31 34 46 38 46 38 41 40 46 48 48 48 42 42 52 48
Wind_Direction
339 336 329 319 309 302 299 296 289 285 284 283 284 282 281 281 279 280 280 281 279 277 276 274 274 274 275 268 264 283 278 286 293 289 279 275 277 283 282 287 287 282 293 296 303 301 300
344 342 339 334 322 311 301 297 294 289 284 281 281 281 280 280 280 278 278 279 280 279 276 273 270 268 268 262 272 271 274 278 284 282 277 276 278 281 283 281 279 289 291 291 293 295 298
345 342 340 343 337 324 311 299 295 293 289 285 280 280 279 279 278 278 278 279 277 278 276 274 271 261 262 259 271 278 274 270 275 276 275 278 280 278 283 279 283 286 282 286 287 292 292
344 339 339 342 345 336 326 312 299 295 292 289 284 279 279 278 277 276 276 277 276 275 275 274 271 261 261 268 265 262 267 275 270 270 271 275 278 277 273 279 281 281 285 281 297 295 293
346 340 335 334 338 343 335 328 317 301 295 292 287 282 279 278 277 276 274 274 274 273 273 272 272 258 262 268 260 261 265 259 270 272 269 272 274 271 273 269 271 274 273 279 289 293 294
347 344 334 331 331 332 332 334 330 325 305 295 293 287 282 279 277 277 276 274 272 271 266 262 263 259 262 263 265 265 260 257 260 261 266 264 263 263 263 259 259 269 275 278 278 288 290
347 345 339 328 326 328 328 329 328 326 324 314 299 292 288 282 280 278 277 275 268 264 255 252 256 256 268 269 270 263 260 250 254 256 253 256 257 251 254 258 267 271 271 274 279 284 285
349 348 343 331 323 323 324 324 328 321 322 318 308 307 293 288 283 280 276 266 265 268 262 260 255 258 254 271 268 260 251 247 246 246 248 253 249 256 263 262 263 267 269 269 276 280 286
348 349 349 340 325 321 320 322 322 323 318 322 313 306 303 295 288 282 270 268 274 280 262 262 257 252 250 255 258 256 245 252 252 249 243 244 250 260 260 262 261 262 264 269 274 282 282
349 350 351 348 334 322 318 318 319 320 312 311 313 310 306 302 289 285 276 274 273 281 261 256 256 257 247 251 254 251 246 253 256 256 250 254 255 259 256 258 258 263 268 273 275 281 276
351 351 351 352 346 328 316 315 316 315 314 305 305 304 305 308 290 285 287 278 272 273 254 259 252 256 251 238 251 249 249 250 252 252 251 254 258 254 257 259 260 269 274 274 275 275 279
353 351 352 353 350 337 322 312 311 311 310 306 297 300 302 308 295 290 292 286 270 255 251 258 256 248 243 242 244 254 243 248 257 254 252 257 264 260 257 262 260 270 272 275 273 275 271
354 351 352 352 353 345 328 317 309 307 306 304 297 296 301 304 298 309 287 269 257 250 264 256 255 252 246 245 243 243 241 240 245 247 249 254 254 259 260 260 260 257 261 265 268 263 260
353 352 352 352 353 348 336 320 314 307 304 303 301 293 298 300 299 287 282 258 255 257 255 268 262 254 249 246 246 243 245 244 242 247 258 252 255 249 251 253 259 249 247 259 267 266 266
350 351 350 351 352 348 339 326 318 310 306 302 300 303 296 296 277 260 268 255 257 258 262 258 260 257 253 250 250 246 245 245 245 240 248 253 255 262 254 252 250 257 251 246 271 276 273
347 348 348 349 351 350 341 328 314 311 307 305 302 297 288 296 264 255 264 261 264 259 264 264 255 258 255 252 248 249 247 251 248 246 245 255 259 258 258 254 252 251 257 254 252 264 265
345 345 346 347 350 350 347 332 308 307 305 305 302 292 292 280 249 252 250 263 269 270 267 264 259 260 259 255 258 252 256 252 252 250 248 251 257 260 256 248 246 247 250 255 256 258 263
341 342 343 343 346 348 348 335 308 304 305 308 303 284 292 258 257 258 218 268 269 273 274 265 267 263 259 259 258 256 257 258 266 256 248 248 258 252 252 259 252 245 242 240 251 252 255
338 339 341 342 343 343 346 341 308 304 307 313 304 289 290 268 259 255 267 235 259 263 275 275 269 266 264 261 262 259 258 261 262 264 260 251 254 253 250 253 256 244 242 243 250 258 253
335 336 337 339 340 341 343 345 309 302 307 317 310 292 282 264 262 264 266 256 246 267 251 268 273 269 267 261 263 262 260 260 265 259 263 270 258 254 250 248 248 250 246 245 245 249 253
335 335 333 337 339 339 341 342 325 306 306 316 317 300 285 269 261 263 265 267 233 232 270 276 269 239 270 265 265 261 263 262 259 258 263 265 260 269 261 255 255 253 250 247 243 247 250
337 333 333 336 338 336 337 338 340 308 308 316 315 306 287 275 267 267 262 265 249 263 272 272 256 235 270 263 264 264 264 261 259 259 256 262 261 265 269 276 256 251 248 246 246 248 251
338 334 335 336 336 338 335 336 339 320 315 319 309 307 290 272 267 262 262 269 252 277 273 267 260 274 272 243 243 256 269 265 262 261 258 260 261 261 260 267 270 256 250 247 250 248 250
336 334 337 336 335 335 332 333 334 333 325 313 299 297 283 252 263 261 274 276 275 281 273 265 267 266 243 279 274 269 266 264 260 258 257 255 258 260 256 264 253 260 262 262 255 251 250
335 334 335 337 335 332 331 330 329 329 323 312 290 289 280 259 265 268 278 279 284 284 255 274 258 245 267 265 267 267 266 265 259 258 255 253 253 254 253 254 261 262 262 264 261 253 250
338 337 335 336 334 332 330 327 327 327 320 302 285 288 282 269 252 282 283 289 273 282 284 262 254 255 250 257 262 261 262 264 263 259 255 254 252 252 254 253 253 255 265 269 277 263 261
337 337 337 336 335 333 330 330 329 325 303 298 283 287 279 271 279 291 292 282 287 280 285 289 259 248 235 248 256 262 262 265 261 257 255 255 255 252 254 255 258 253 259 265 265 265 268
333 338 338 338 337 335 337 336 331 318 280 287 284 282 275 273 270 293 290 283 290 283 283 286 254 253 242 250 255 263 264 264 265 261 256 255 259 257 259 255 254 251 254 254 264 268 271
336 336 336 336 337 338 338 337 331 273 278 285 281 299 273 276 284 295 286 292 289 292 288 269 269 256 252 254 261 265 268 271 267 261 259 256 256 262 267 264 261 253 252 256 261 263 269